GSAT0215 (GALILEO 19)

Last updated on Wed Nov 20 2024 00:02:29 GMT+0000 (Coordinated Universal Time)

1 43055U 17079A 24323.57829046 -.00000009 00000+0 00000+0 0 9994 2 43055 55.2756 237.3492 0001861 300.8017 59.2258 1.70473701 43170
UTC large
Height (km)
Speed (km/s)
/
Latitude / Longitude
Inclination (degrees)
Orbital Period (minutes)
Azimuth
Elevation
Range (km)
Doppler Factor

Next 0 passes for location: London (51.5072 / 0.1276)

Sorry there are no passes over London.